Tracking 19795 objects as of 19-Jul-2019
HD Live streaming from Space Station
objects crossing your sky now

FENGYUN 1C DEB

Track FENGYUN 1C DEB now!
10-day predictions


NORAD ID: 33684
Int'l Code: 1999-025DFV
Perigee: 477.5 km
Apogee: 1,093.9 km
Inclination: 99.1 °
Period: 100.4 minutes
Semi major axis: 7156 km
RCS: 0.0093 m2 (small)
Launch date: May 10, 1999
Source: People's Republic of China (PRC)
Launch site: Taiyaun Space Center, China (TSC)

Note: This is SATELLITE DEBRIS
aabbcc
Your satellite tracking list
Your tracking list is empty




NASA's NSSDC Master Catalog

Two Line Element Set (TLE):
1 33684U 99025DFV 19199.05136464 +.00000326 +00000-0 +49572-4 0  9999
2 33684 099.1089 058.9641 0430660 105.8519 259.0566 14.33957190592048
Source of the keplerian elements: AFSPC